User: anonymous   Login
Location: Unspecified
(0.0000°N, 0.0000°E)
Time: 13:03:02
(UTC+01:00)
Language:

NATO 3D Rocket - Orbit

View from above orbital plane
View from above orbital plane
View from above satellite
View from above satellite

Ground track
Ground track

The orbit data is extracted from the following two-line orbital elements,

1 15392U 84115B   14324.15612525  .00000299  00000-0  12254-3 0  2158
2 15392 021.4994 286.4264 1034682 261.9408 205.0303 12.45438674366728
Epoch (UTC): 20 November 2014 03:44:49
Eccentricity: 0.1034682
inclination: 21.4994°
perigee height: 670 km
apogee height: 2297 km
right ascension of ascending node: 286.4264°
argument of perigee: 261.9408°
revolutions per day: 12.45438674
mean anomaly at epoch: 205.0303°
orbit number at epoch: 36672

The dashed part of the orbit path shows where the satellite is in the earth's shadow,  

DLR